Time,TemperatureF,DewpointF,PressureIn,WindDirection,WindDirectionDegrees,WindSpeedMPH,WindSpeedGustMPH,Humidity,HourlyPrecipIn,Conditions,Clouds,dailyrainin,SoftwareType,DateUTC
2013-04-07 00:00:00,47.1,26.7,29.77,ESE,123,2.5,10.3,45,0.00,,,-99.99,open2300 version1.11,2013-04-07 04:00:00,
2013-04-07 00:05:00,47.1,26.7,29.77,ESE,123,2.1,9.6,45,0.00,,,-99.99,open2300 version1.11,2013-04-07 04:05:00,
2013-04-07 00:10:00,47.3,26.9,29.77,SE,140,3.4,16.3,45,0.00,,,-99.99,open2300 version1.11,2013-04-07 04:10:00,
2013-04-07 00:15:00,47.3,26.9,29.76,SE,128,2.8,12.5,45,0.00,,,-99.99,open2300 version1.11,2013-04-07 04:15:00,
2013-04-07 00:20:00,47.5,26.5,29.76,SE,133,3.1,11.0,44,0.00,,,-99.99,open2300 version1.11,2013-04-07 04:20:00,
2013-04-07 00:30:00,47.7,26.6,29.75,SE,127,3.5,11.0,44,0.00,,,-99.99,open2300 version1.11,2013-04-07 04:30:00,
2013-04-07 00:35:00,47.8,26.8,29.75,SE,135,1.9,9.4,44,0.00,,,-99.99,open2300 version1.11,2013-04-07 04:35:00,
2013-04-07 00:40:00,48.0,27.0,29.74,SE,129,0.9,9.8,44,0.00,,,-99.99,open2300 version1.11,2013-04-07 04:40:00,
2013-04-07 00:45:00,48.0,27.0,29.74,SE,138,1.9,7.4,44,0.00,,,-99.99,open2300 version1.11,2013-04-07 04:45:00,
2013-04-07 00:50:00,48.0,27.0,29.74,SSE,152,2.1,13.7,44,0.00,,,-99.99,open2300 version1.11,2013-04-07 04:50:00,
2013-04-07 00:55:00,48.0,27.0,29.74,SE,140,3.0,11.9,44,0.00,,,-99.99,open2300 version1.11,2013-04-07 04:55:00,
2013-04-07 01:05:00,48.0,27.0,29.73,SE,128,1.5,8.7,44,0.00,,,-99.99,open2300 version1.11,2013-04-07 05:05:00,
2013-04-07 01:10:00,48.0,27.0,29.73,SSE,148,1.7,6.9,44,0.00,,,-99.99,open2300 version1.11,2013-04-07 05:10:00,
2013-04-07 01:15:00,48.0,27.0,29.73,SE,139,0.5,2.9,44,0.00,,,-99.99,open2300 version1.11,2013-04-07 05:15:00,
2013-04-07 01:20:00,48.0,27.0,29.73,SE,125,1.0,4.0,44,0.00,,,-99.99,open2300 version1.11,2013-04-07 05:20:00,
2013-04-07 01:30:00,48.2,27.1,29.72,SE,126,0.7,3.4,44,0.00,,,-99.99,open2300 version1.11,2013-04-07 05:30:00,
2013-04-07 01:35:00,48.2,27.1,29.72,SE,146,0.8,6.7,44,0.00,,,-99.99,open2300 version1.11,2013-04-07 05:35:00,
2013-04-07 01:45:00,48.4,27.8,29.70,SSE,155,0.4,5.6,45,0.00,,,-99.99,open2300 version1.11,2013-04-07 05:45:00,
2013-04-07 01:55:00,48.4,27.8,29.70,SSE,163,0.9,5.8,45,0.00,,,-99.99,open2300 version1.11,2013-04-07 05:55:00,
2013-04-07 02:00:00,48.6,28.0,29.70,SSE,157,0.0,0.0,45,0.00,,,-99.99,open2300 version1.11,2013-04-07 06:00:00,
2013-04-07 02:05:00,48.6,28.0,29.70,SE,141,0.6,5.6,45,0.00,,,-99.99,open2300 version1.11,2013-04-07 06:05:00,
2013-04-07 02:10:00,48.7,28.2,29.70,SSE,160,0.3,1.8,45,0.00,,,-99.99,open2300 version1.11,2013-04-07 06:10:00,
2013-04-07 02:15:00,48.7,28.2,29.70,SE,140,0.2,3.4,45,0.00,,,-99.99,open2300 version1.11,2013-04-07 06:15:00,
2013-04-07 02:20:00,48.9,28.9,29.70,SE,135,0.2,3.6,46,0.00,,,-99.99,open2300 version1.11,2013-04-07 06:20:00,
2013-04-07 02:25:00,48.9,28.9,29.70,ENE,67,0.1,1.3,46,0.00,,,-99.99,open2300 version1.11,2013-04-07 06:25:00,
2013-04-07 02:35:00,49.3,29.8,29.69,SSW,204,0.6,6.9,47,0.00,,,-99.99,open2300 version1.11,2013-04-07 06:35:00,
2013-04-07 02:45:00,50.2,32.8,29.68,SE,144,0.7,3.1,51,0.00,,,-99.99,open2300 version1.11,2013-04-07 06:45:00,
2013-04-07 02:55:00,50.7,33.7,29.67,South,180,0.0,1.6,52,0.00,,,-99.99,open2300 version1.11,2013-04-07 06:55:00,
2013-04-07 03:00:00,50.9,33.9,29.66,SSE,159,0.7,4.7,52,0.00,,,-99.99,open2300 version1.11,2013-04-07 07:00:00,
2013-04-07 03:10:00,50.9,34.3,29.65,South,180,0.4,4.7,53,0.00,,,-99.99,open2300 version1.11,2013-04-07 07:10:00,
2013-04-07 03:15:00,50.9,34.8,29.65,SE,135,0.4,7.8,54,0.00,,,-99.99,open2300 version1.11,2013-04-07 07:15:00,
2013-04-07 03:20:00,50.9,34.8,29.64,SW,225,0.1,2.7,54,0.00,,,-99.99,open2300 version1.11,2013-04-07 07:20:00,
2013-04-07 03:30:00,51.1,35.0,29.64,South,175,0.2,3.1,54,0.00,,,-99.99,open2300 version1.11,2013-04-07 07:30:00,
2013-04-07 03:35:00,51.3,35.1,29.64,South,191,0.3,4.2,54,0.00,,,-99.99,open2300 version1.11,2013-04-07 07:35:00,
2013-04-07 03:40:00,51.4,35.3,29.64,SSW,208,0.2,3.6,54,0.00,,,-99.99,open2300 version1.11,2013-04-07 07:40:00,
2013-04-07 03:50:00,52.0,35.8,29.63,SSW,202,1.6,6.5,54,0.00,,,-99.99,open2300 version1.11,2013-04-07 07:50:00,
2013-04-07 03:55:00,52.2,35.9,29.64,West,261,0.7,3.6,54,0.00,,,-99.99,open2300 version1.11,2013-04-07 07:55:00,
2013-04-07 04:00:00,52.3,36.1,29.63,SSE,152,1.0,5.8,54,0.00,,,-99.99,open2300 version1.11,2013-04-07 08:00:00,
2013-04-07 04:05:00,52.3,36.1,29.63,South,180,1.6,6.3,54,0.00,,,-99.99,open2300 version1.11,2013-04-07 08:05:00,
2013-04-07 04:10:00,52.5,36.3,29.63,West,272,0.8,7.4,54,0.00,,,-99.99,open2300 version1.11,2013-04-07 08:10:00,
2013-04-07 04:15:00,52.9,36.6,29.63,South,180,0.9,4.0,54,0.00,,,-99.99,open2300 version1.11,2013-04-07 08:15:00,
2013-04-07 04:25:00,53.2,37.0,29.62,SW,225,0.8,4.9,54,0.00,,,-99.99,open2300 version1.11,2013-04-07 08:25:00,
2013-04-07 04:30:00,53.4,37.1,29.62,SSW,206,1.1,4.2,54,0.00,,,-99.99,open2300 version1.11,2013-04-07 08:30:00,
2013-04-07 04:35:00,53.4,37.1,29.62,SSW,210,0.8,4.0,54,0.00,,,-99.99,open2300 version1.11,2013-04-07 08:35:00,
2013-04-07 04:40:00,53.4,37.6,29.62,SW,230,2.8,9.4,55,0.00,,,-99.99,open2300 version1.11,2013-04-07 08:40:00,
2013-04-07 04:45:00,53.6,38.2,29.62,SW,225,2.8,8.3,56,0.00,,,-99.99,open2300 version1.11,2013-04-07 08:45:00,
2013-04-07 04:55:00,54.0,39.5,29.61,SW,226,4.1,8.3,58,0.00,,,-99.99,open2300 version1.11,2013-04-07 08:55:00,
2013-04-07 05:00:00,54.1,40.1,29.61,WSW,239,3.6,9.6,59,0.00,,,-99.99,open2300 version1.11,2013-04-07 09:00:00,
2013-04-07 05:05:00,54.1,40.6,29.61,SW,236,4.2,9.6,60,0.00,,,-99.99,open2300 version1.11,2013-04-07 09:05:00,
2013-04-07 05:10:00,54.3,40.8,29.60,SW,231,3.6,6.5,60,0.00,,,-99.99,open2300 version1.11,2013-04-07 09:10:00,
2013-04-07 05:15:00,54.3,40.8,29.60,SW,234,2.3,7.6,60,0.00,,,-99.99,open2300 version1.11,2013-04-07 09:15:00,
2013-04-07 05:20:00,54.3,40.8,29.60,SW,225,1.2,6.0,60,0.00,,,-99.99,open2300 version1.11,2013-04-07 09:20:00,
2013-04-07 05:25:00,54.1,40.6,29.60,WSW,245,0.8,6.5,60,0.00,,,-99.99,open2300 version1.11,2013-04-07 09:25:00,
2013-04-07 05:30:00,54.0,40.8,29.61,SW,229,1.5,4.0,61,0.00,,,-99.99,open2300 version1.11,2013-04-07 09:30:00,
2013-04-07 05:40:00,53.8,40.7,29.61,SW,226,1.7,5.4,61,0.00,,,-99.99,open2300 version1.11,2013-04-07 09:40:00,
2013-04-07 05:50:00,53.6,40.5,29.61,WSW,238,1.3,5.4,61,0.00,,,-99.99,open2300 version1.11,2013-04-07 09:50:00,
2013-04-07 05:55:00,53.8,40.7,29.61,SW,235,0.9,4.7,61,0.00,,,-99.99,open2300 version1.11,2013-04-07 09:55:00,
2013-04-07 06:00:00,53.4,40.3,29.61,SW,229,2.1,7.6,61,0.00,,,-99.99,open2300 version1.11,2013-04-07 10:00:00,
2013-04-07 06:05:00,53.6,40.5,29.60,SW,232,3.1,7.2,61,0.00,,,-99.99,open2300 version1.11,2013-04-07 10:05:00,
2013-04-07 06:10:00,53.8,40.7,29.60,SW,231,1.8,4.5,61,0.00,,,-99.99,open2300 version1.11,2013-04-07 10:10:00,
2013-04-07 06:15:00,54.0,40.8,29.60,SW,220,1.9,5.8,61,0.00,,,-99.99,open2300 version1.11,2013-04-07 10:15:00,
2013-04-07 06:26:00,54.1,41.0,29.60,WSW,242,2.4,6.9,61,0.00,,,-99.99,open2300 version1.11,2013-04-07 10:26:00,
2013-04-07 06:35:00,54.3,41.5,29.61,WSW,240,3.1,6.9,62,0.00,,,-99.99,open2300 version1.11,2013-04-07 10:35:00,
2013-04-07 06:40:00,54.3,41.5,29.61,SW,235,4.2,9.2,62,0.00,,,-99.99,open2300 version1.11,2013-04-07 10:40:00,
2013-04-07 06:50:00,54.7,42.3,29.61,WSW,238,4.1,9.2,63,0.00,,,-99.99,open2300 version1.11,2013-04-07 10:50:00,
2013-04-07 06:55:00,55.0,42.6,29.62,SW,228,4.6,8.5,63,0.00,,,-99.99,open2300 version1.11,2013-04-07 10:55:00,
2013-04-07 07:00:00,55.0,43.0,29.62,WSW,240,7.3,13.9,64,0.00,,,-99.99,open2300 version1.11,2013-04-07 11:00:00,
2013-04-07 07:05:00,55.2,42.8,29.62,WSW,246,2.8,6.5,63,0.00,,,-99.99,open2300 version1.11,2013-04-07 11:05:00,
2013-04-07 07:10:00,55.2,42.8,29.63,WSW,243,5.1,8.7,63,0.00,,,-99.99,open2300 version1.11,2013-04-07 11:10:00,
2013-04-07 07:20:00,55.2,43.2,29.63,SW,229,4.7,9.6,64,0.00,,,-99.99,open2300 version1.11,2013-04-07 11:20:00,
2013-04-07 07:25:00,55.2,43.6,29.64,WSW,245,6.1,10.5,65,0.00,,,-99.99,open2300 version1.11,2013-04-07 11:25:00,
2013-04-07 07:30:00,55.0,43.5,29.64,WSW,243,7.1,11.9,65,0.00,,,-99.99,open2300 version1.11,2013-04-07 11:30:00,
2013-04-07 07:35:00,55.2,43.6,29.64,WSW,244,5.4,11.2,65,0.00,,,-99.99,open2300 version1.11,2013-04-07 11:35:00,
2013-04-07 07:40:00,55.0,43.5,29.64,SW,236,6.7,12.1,65,0.00,,,-99.99,open2300 version1.11,2013-04-07 11:40:00,
2013-04-07 07:50:00,55.0,43.8,29.64,WSW,242,4.5,11.2,66,0.00,,,-99.99,open2300 version1.11,2013-04-07 11:50:00,
2013-04-07 07:55:00,55.0,43.8,29.65,WSW,251,4.3,9.8,66,0.00,,,-99.99,open2300 version1.11,2013-04-07 11:55:00,
2013-04-07 08:05:00,55.0,44.3,29.65,WSW,241,5.6,12.8,67,0.00,,,-99.99,open2300 version1.11,2013-04-07 12:05:00,
2013-04-07 08:10:00,55.0,44.3,29.65,WSW,251,4.0,10.1,67,0.00,,,-99.99,open2300 version1.11,2013-04-07 12:10:00,
2013-04-07 08:15:00,55.0,44.3,29.66,WSW,242,5.1,8.1,67,0.00,,,-99.99,open2300 version1.11,2013-04-07 12:15:00,
2013-04-07 08:20:00,55.0,44.3,29.66,WSW,242,5.7,9.8,67,0.00,,,-99.99,open2300 version1.11,2013-04-07 12:20:00,
2013-04-07 08:25:00,55.2,44.4,29.66,WSW,239,4.8,7.4,67,0.00,,,-99.99,open2300 version1.11,2013-04-07 12:25:00,
2013-04-07 08:30:00,55.4,44.6,29.67,WSW,241,4.6,8.5,67,0.00,,,-99.99,open2300 version1.11,2013-04-07 12:30:00,
2013-04-07 08:35:00,55.6,44.8,29.67,WSW,244,6.1,10.5,67,0.00,,,-99.99,open2300 version1.11,2013-04-07 12:35:00,
2013-04-07 08:40:00,55.4,44.6,29.67,WSW,249,5.3,9.2,67,0.00,,,-99.99,open2300 version1.11,2013-04-07 12:40:00,
2013-04-07 08:45:00,55.4,44.6,29.68,WSW,249,5.1,8.5,67,0.00,,,-99.99,open2300 version1.11,2013-04-07 12:45:00,
2013-04-07 08:55:00,55.2,44.9,29.69,WSW,251,7.4,13.7,68,0.00,,,-99.99,open2300 version1.11,2013-04-07 12:55:00,
2013-04-07 09:00:00,54.7,44.3,29.69,WSW,244,6.4,10.3,68,0.00,,,-99.99,open2300 version1.11,2013-04-07 13:00:00,
2013-04-07 09:05:00,54.3,44.0,29.69,West,262,4.5,7.8,68,0.00,,,-99.99,open2300 version1.11,2013-04-07 13:05:00,
2013-04-07 09:15:00,54.0,43.6,29.70,WSW,257,6.5,9.4,68,0.00,,,-99.99,open2300 version1.11,2013-04-07 13:15:00,
2013-04-07 09:20:00,53.4,43.1,29.71,WSW,252,5.6,12.3,68,0.00,,,-99.99,open2300 version1.11,2013-04-07 13:20:00,
2013-04-07 09:25:00,53.2,42.9,29.72,WSW,255,4.6,6.9,68,0.00,,,-99.99,open2300 version1.11,2013-04-07 13:25:00,
2013-04-07 09:30:00,52.9,42.6,29.72,West,265,4.7,7.8,68,0.00,,,-99.99,open2300 version1.11,2013-04-07 13:30:00,
2013-04-07 09:35:00,52.5,42.7,29.72,WSW,244,5.4,8.9,69,0.00,,,-99.99,open2300 version1.11,2013-04-07 13:35:00,
2013-04-07 09:45:00,51.6,41.9,29.73,WSW,258,5.4,9.8,69,0.00,,,-99.99,open2300 version1.11,2013-04-07 13:45:00,
2013-04-07 09:50:00,51.6,41.9,29.73,WSW,247,5.1,9.4,69,0.00,,,-99.99,open2300 version1.11,2013-04-07 13:50:00,
2013-04-07 09:55:00,51.4,41.7,29.74,WSW,249,4.0,8.5,69,0.00,,,-99.99,open2300 version1.11,2013-04-07 13:55:00,
2013-04-07 10:00:00,51.3,41.5,29.74,West,262,4.1,9.4,69,0.00,,,-99.99,open2300 version1.11,2013-04-07 14:00:00,
2013-04-07 10:10:00,50.9,41.1,29.74,West,263,4.5,8.1,69,0.00,,,-99.99,open2300 version1.11,2013-04-07 14:10:00,
2013-04-07 10:15:00,50.7,41.0,29.75,West,263,5.2,9.2,69,0.00,,,-99.99,open2300 version1.11,2013-04-07 14:15:00,
2013-04-07 10:20:00,50.4,40.6,29.75,West,266,4.8,8.1,69,0.00,,,-99.99,open2300 version1.11,2013-04-07 14:20:00,
2013-04-07 10:30:00,49.8,39.7,29.76,West,268,5.1,9.8,68,0.00,,,-99.99,open2300 version1.11,2013-04-07 14:30:00,
2013-04-07 10:35:00,49.3,39.1,29.77,West,267,4.8,8.7,68,0.00,,,-99.99,open2300 version1.11,2013-04-07 14:35:00,
2013-04-07 10:45:00,48.7,38.6,29.77,West,261,6.1,11.2,68,0.00,,,-99.99,open2300 version1.11,2013-04-07 14:45:00,
2013-04-07 10:55:00,48.6,38.4,29.78,WSW,255,6.5,10.3,68,0.00,,,-99.99,open2300 version1.11,2013-04-07 14:55:00,
2013-04-07 11:05:00,48.4,38.2,29.79,West,265,6.1,11.0,68,0.00,,,-99.99,open2300 version1.11,2013-04-07 15:05:00,
2013-04-07 11:10:00,48.2,38.1,29.79,West,262,6.2,13.0,68,0.00,,,-99.99,open2300 version1.11,2013-04-07 15:10:00,
2013-04-07 11:15:00,48.4,38.2,29.79,WSW,252,5.0,8.3,68,0.00,,,-99.99,open2300 version1.11,2013-04-07 15:15:00,
2013-04-07 11:25:00,48.7,38.6,29.80,WSW,250,5.1,8.7,68,0.00,,,-99.99,open2300 version1.11,2013-04-07 15:25:00,
2013-04-07 11:30:00,48.7,38.2,29.80,West,259,7.5,12.3,67,0.00,,,-99.99,open2300 version1.11,2013-04-07 15:30:00,
2013-04-07 11:35:00,48.7,38.2,29.80,WSW,256,6.7,14.8,67,0.00,,,-99.99,open2300 version1.11,2013-04-07 15:35:00,
2013-04-07 11:45:00,48.7,37.8,29.80,WSW,246,8.1,15.2,66,0.00,,,-99.99,open2300 version1.11,2013-04-07 15:45:00,
2013-04-07 11:50:00,48.9,38.0,29.81,WSW,255,4.3,6.3,66,0.00,,,-99.99,open2300 version1.11,2013-04-07 15:50:00,
2013-04-07 11:55:00,48.9,38.0,29.82,WSW,258,4.9,8.3,66,0.00,,,-99.99,open2300 version1.11,2013-04-07 15:55:00,
2013-04-07 12:00:00,48.9,38.0,29.81,West,259,4.8,8.9,66,0.00,,,-99.99,open2300 version1.11,2013-04-07 16:00:00,
2013-04-07 12:05:00,48.7,37.5,29.82,WSW,255,7.6,14.1,65,0.00,,,-99.99,open2300 version1.11,2013-04-07 16:05:00,
2013-04-07 12:10:00,48.7,37.5,29.82,West,263,7.4,12.8,65,0.00,,,-99.99,open2300 version1.11,2013-04-07 16:10:00,
2013-04-07 12:20:00,48.2,37.0,29.83,West,261,4.3,12.1,65,0.00,,,-99.99,open2300 version1.11,2013-04-07 16:20:00,
2013-04-07 12:25:00,48.0,36.8,29.83,WSW,257,4.6,11.2,65,0.00,,,-99.99,open2300 version1.11,2013-04-07 16:25:00,
2013-04-07 12:30:00,48.0,36.8,29.83,West,267,4.8,10.1,65,0.00,,,-99.99,open2300 version1.11,2013-04-07 16:30:00,
2013-04-07 12:40:00,48.0,36.8,29.84,WSW,252,4.1,7.4,65,0.00,,,-99.99,open2300 version1.11,2013-04-07 16:40:00,
2013-04-07 12:45:00,48.0,36.8,29.84,WSW,258,5.2,12.5,65,0.00,,,-99.99,open2300 version1.11,2013-04-07 16:45:00,
2013-04-07 12:50:00,48.0,36.8,29.84,West,261,5.7,12.8,65,0.00,,,-99.99,open2300 version1.11,2013-04-07 16:50:00,
2013-04-07 12:55:00,48.0,36.8,29.84,WSW,258,5.0,8.9,65,0.00,,,-99.99,open2300 version1.11,2013-04-07 16:55:00,
2013-04-07 13:00:00,48.2,37.0,29.84,WSW,249,4.9,9.4,65,0.00,,,-99.99,open2300 version1.11,2013-04-07 17:00:00,
2013-04-07 13:10:00,48.2,36.6,29.85,West,260,6.2,10.3,64,0.00,,,-99.99,open2300 version1.11,2013-04-07 17:10:00,
2013-04-07 13:15:00,48.4,36.7,29.85,West,262,5.7,12.1,64,0.00,,,-99.99,open2300 version1.11,2013-04-07 17:15:00,
2013-04-07 13:25:00,48.4,36.7,29.85,WSW,252,5.1,11.0,64,0.00,,,-99.99,open2300 version1.11,2013-04-07 17:25:00,
2013-04-07 13:35:00,48.7,37.1,29.86,WSW,253,5.0,12.8,64,0.00,,,-99.99,open2300 version1.11,2013-04-07 17:35:00,
2013-04-07 13:40:00,48.7,37.1,29.86,WSW,252,4.3,7.4,64,0.00,,,-99.99,open2300 version1.11,2013-04-07 17:40:00,
2013-04-07 13:45:00,49.1,37.0,29.86,WSW,253,5.2,10.1,63,0.00,,,-99.99,open2300 version1.11,2013-04-07 17:45:00,
2013-04-07 13:50:00,49.3,36.8,29.86,WSW,255,7.0,14.5,62,0.00,,,-99.99,open2300 version1.11,2013-04-07 17:50:00,
2013-04-07 13:55:00,49.3,36.8,29.87,WSW,254,6.3,11.4,62,0.00,,,-99.99,open2300 version1.11,2013-04-07 17:55:00,
2013-04-07 14:05:00,49.6,37.1,29.87,West,259,2.4,7.4,62,0.00,,,-99.99,open2300 version1.11,2013-04-07 18:05:00,
2013-04-07 14:10:00,49.8,36.9,29.87,West,261,4.7,8.3,61,0.00,,,-99.99,open2300 version1.11,2013-04-07 18:10:00,
2013-04-07 14:15:00,49.8,36.9,29.87,West,262,5.3,11.6,61,0.00,,,-99.99,open2300 version1.11,2013-04-07 18:15:00,
2013-04-07 14:20:00,49.8,36.5,29.88,West,267,5.7,10.5,60,0.00,,,-99.99,open2300 version1.11,2013-04-07 18:20:00,
2013-04-07 14:25:00,49.8,36.5,29.88,West,267,5.5,12.3,60,0.00,,,-99.99,open2300 version1.11,2013-04-07 18:25:00,
2013-04-07 14:30:00,49.6,36.4,29.89,West,265,4.2,8.9,60,0.00,,,-99.99,open2300 version1.11,2013-04-07 18:30:00,
2013-04-07 14:35:00,49.8,36.5,29.89,West,269,2.9,6.0,60,0.00,,,-99.99,open2300 version1.11,2013-04-07 18:35:00,
2013-04-07 14:45:00,49.8,36.5,29.89,WSW,256,4.0,7.6,60,0.00,,,-99.99,open2300 version1.11,2013-04-07 18:45:00,
2013-04-07 14:55:00,49.3,36.0,29.90,WSW,258,5.2,11.6,60,0.00,,,-99.99,open2300 version1.11,2013-04-07 18:55:00,
2013-04-07 15:00:00,49.3,36.0,29.90,West,260,5.9,9.4,60,0.00,,,-99.99,open2300 version1.11,2013-04-07 19:00:00,
2013-04-07 15:05:00,49.3,36.0,29.90,West,264,5.4,15.0,60,0.00,,,-99.99,open2300 version1.11,2013-04-07 19:05:00,
2013-04-07 15:15:00,49.6,36.4,29.90,WSW,243,3.3,7.2,60,0.00,,,-99.99,open2300 version1.11,2013-04-07 19:15:00,
2013-04-07 15:25:00,49.6,35.9,29.91,West,261,3.1,6.3,59,0.00,,,-99.99,open2300 version1.11,2013-04-07 19:25:00,
2013-04-07 15:30:00,49.8,36.0,29.91,WSW,255,3.7,6.7,59,0.00,,,-99.99,open2300 version1.11,2013-04-07 19:30:00,
2013-04-07 15:40:00,49.8,36.0,29.91,West,263,4.4,8.9,59,0.00,,,-99.99,open2300 version1.11,2013-04-07 19:40:00,
2013-04-07 15:45:00,49.8,36.0,29.91,West,262,3.9,7.6,59,0.00,,,-99.99,open2300 version1.11,2013-04-07 19:45:00,
2013-04-07 15:50:00,49.8,35.6,29.92,West,261,4.8,9.8,58,0.00,,,-99.99,open2300 version1.11,2013-04-07 19:50:00,
2013-04-07 15:55:00,49.8,35.6,29.92,WSW,253,4.2,7.2,58,0.00,,,-99.99,open2300 version1.11,2013-04-07 19:55:00,
2013-04-07 16:00:00,49.8,35.6,29.92,West,263,3.9,7.6,58,0.00,,,-99.99,open2300 version1.11,2013-04-07 20:00:00,
2013-04-07 16:10:00,49.6,35.4,29.93,WSW,253,2.5,6.3,58,0.00,,,-99.99,open2300 version1.11,2013-04-07 20:10:00,
2013-04-07 16:20:00,49.6,35.4,29.93,West,259,3.1,9.4,58,0.00,,,-99.99,open2300 version1.11,2013-04-07 20:20:00,
2013-04-07 16:30:00,49.8,35.6,29.93,West,270,3.0,6.7,58,0.00,,,-99.99,open2300 version1.11,2013-04-07 20:30:00,
2013-04-07 16:35:00,49.8,35.6,29.93,West,272,2.5,6.3,58,0.00,,,-99.99,open2300 version1.11,2013-04-07 20:35:00,
2013-04-07 16:40:00,49.8,35.6,29.93,West,265,2.1,4.0,58,0.00,,,-99.99,open2300 version1.11,2013-04-07 20:40:00,
2013-04-07 16:50:00,50.2,35.9,29.93,WSW,248,2.0,4.9,58,0.00,,,-99.99,open2300 version1.11,2013-04-07 20:50:00,
2013-04-07 16:55:00,50.2,35.5,29.93,West,265,3.3,5.8,57,0.00,,,-99.99,open2300 version1.11,2013-04-07 20:55:00,
2013-04-07 17:00:00,50.4,35.6,29.94,West,277,2.5,6.0,57,0.00,,,-99.99,open2300 version1.11,2013-04-07 21:00:00,
2013-04-07 17:05:00,50.2,35.5,29.94,West,267,3.1,5.6,57,0.00,,,-99.99,open2300 version1.11,2013-04-07 21:05:00,
2013-04-07 17:15:00,50.2,35.5,29.94,West,264,2.3,6.0,57,0.00,,,-99.99,open2300 version1.11,2013-04-07 21:15:00,
2013-04-07 17:20:00,50.2,35.5,29.94,West,280,1.8,6.9,57,0.00,,,-99.99,open2300 version1.11,2013-04-07 21:20:00,
2013-04-07 17:25:00,50.2,35.5,29.95,West,268,2.7,5.8,57,0.00,,,-99.99,open2300 version1.11,2013-04-07 21:25:00,
2013-04-07 17:35:00,50.0,35.3,29.95,ESE,117,1.3,5.1,57,0.00,,,-99.99,open2300 version1.11,2013-04-07 21:35:00,
2013-04-07 17:40:00,49.8,35.1,29.95,West,275,1.8,6.5,57,0.00,,,-99.99,open2300 version1.11,2013-04-07 21:40:00,
2013-04-07 17:45:00,49.6,35.0,29.95,WNW,294,3.1,7.4,57,0.00,,,-99.99,open2300 version1.11,2013-04-07 21:45:00,
2013-04-07 17:55:00,49.3,34.6,29.96,WSW,242,0.8,3.8,57,0.00,,,-99.99,open2300 version1.11,2013-04-07 21:55:00,
2013-04-07 18:00:00,49.6,35.0,29.96,West,260,1.5,4.2,57,0.00,,,-99.99,open2300 version1.11,2013-04-07 22:00:00,
2013-04-07 18:10:00,49.3,34.6,29.96,NW,304,0.5,2.9,57,0.00,,,-99.99,open2300 version1.11,2013-04-07 22:10:00,
2013-04-07 18:15:00,49.3,34.6,29.96,West,267,0.5,2.7,57,0.00,,,-99.99,open2300 version1.11,2013-04-07 22:15:00,
2013-04-07 18:20:00,49.1,34.5,29.96,WNW,292,0.3,2.5,57,0.00,,,-99.99,open2300 version1.11,2013-04-07 22:20:00,
2013-04-07 18:25:00,48.9,34.3,29.96,WNW,295,1.5,4.5,57,0.00,,,-99.99,open2300 version1.11,2013-04-07 22:25:00,
2013-04-07 18:30:00,48.7,34.1,29.96,SSE,165,1.5,4.9,57,0.00,,,-99.99,open2300 version1.11,2013-04-07 22:30:00,
2013-04-07 18:35:00,48.7,34.1,29.97,West,279,1.7,4.7,57,0.00,,,-99.99,open2300 version1.11,2013-04-07 22:35:00,
2013-04-07 18:40:00,48.6,34.0,29.97,SE,135,0.4,2.0,57,0.00,,,-99.99,open2300 version1.11,2013-04-07 22:40:00,
2013-04-07 18:50:00,48.4,34.3,29.96,WNW,301,1.1,3.6,58,0.00,,,-99.99,open2300 version1.11,2013-04-07 22:50:00,
2013-04-07 18:55:00,48.2,34.1,29.96,WNW,303,0.8,3.8,58,0.00,,,-99.99,open2300 version1.11,2013-04-07 22:55:00,
2013-04-07 19:05:00,48.0,33.9,29.97,West,276,0.6,2.7,58,0.00,,,-99.99,open2300 version1.11,2013-04-07 23:05:00,
2013-04-07 19:10:00,47.8,33.8,29.97,West,270,0.8,2.7,58,0.00,,,-99.99,open2300 version1.11,2013-04-07 23:10:00,
2013-04-07 19:20:00,47.3,33.2,29.97,WNW,292,0.1,1.1,58,0.00,,,-99.99,open2300 version1.11,2013-04-07 23:20:00,
2013-04-07 19:25:00,47.1,33.1,29.97,WNW,292,0.2,1.3,58,0.00,,,-99.99,open2300 version1.11,2013-04-07 23:25:00,
2013-04-07 19:30:00,46.9,32.9,29.97,NNW,348,0.3,3.6,58,0.00,,,-99.99,open2300 version1.11,2013-04-07 23:30:00,
2013-04-07 19:35:00,46.8,33.1,29.97,WNW,292,0.1,1.1,59,0.00,,,-99.99,open2300 version1.11,2013-04-07 23:35:00,
2013-04-07 19:40:00,46.6,33.0,29.97,North,0,0.1,1.6,59,0.00,,,-99.99,open2300 version1.11,2013-04-07 23:40:00,
2013-04-07 19:45:00,46.2,32.6,29.97,North,0,0.1,2.0,59,0.00,,,-99.99,open2300 version1.11,2013-04-07 23:45:00,
2013-04-07 19:55:00,45.7,32.6,29.98,NW,315,0.0,0.0,60,0.00,,,-99.99,open2300 version1.11,2013-04-07 23:55:00,
2013-04-07 20:00:00,45.3,32.3,29.98,NW,315,0.0,0.0,60,0.00,,,-99.99,open2300 version1.11,2013-04-08 00:00:00,
2013-04-07 20:05:00,45.1,32.1,29.98,NW,315,0.0,0.0,60,0.00,,,-99.99,open2300 version1.11,2013-04-08 00:05:00,
2013-04-07 20:10:00,45.0,32.0,29.98,NW,315,0.0,0.0,60,0.00,,,-99.99,open2300 version1.11,2013-04-08 00:10:00,
2013-04-07 20:20:00,44.2,31.3,29.98,NNW,348,0.1,1.1,60,0.00,,,-99.99,open2300 version1.11,2013-04-08 00:20:00,
2013-04-07 20:25:00,43.9,31.3,29.98,North,0,0.0,0.0,61,0.00,,,-99.99,open2300 version1.11,2013-04-08 00:25:00,
2013-04-07 20:35:00,43.3,31.1,29.98,North,0,0.0,0.0,62,0.00,,,-99.99,open2300 version1.11,2013-04-08 00:35:00,
2013-04-07 20:40:00,43.2,31.0,29.98,North,0,0.0,0.0,62,0.00,,,-99.99,open2300 version1.11,2013-04-08 00:40:00,
2013-04-07 20:45:00,43.0,30.8,29.98,North,0,0.0,0.0,62,0.00,,,-99.99,open2300 version1.11,2013-04-08 00:45:00,
2013-04-07 20:55:00,42.3,30.5,29.99,North,0,0.0,0.0,63,0.00,,,-99.99,open2300 version1.11,2013-04-08 00:55:00,
2013-04-07 21:00:00,42.1,30.3,29.98,North,0,0.0,0.0,63,0.00,,,-99.99,open2300 version1.11,2013-04-08 01:00:00,
2013-04-07 21:05:00,41.7,30.0,29.99,North,0,0.0,0.0,63,0.00,,,-99.99,open2300 version1.11,2013-04-08 01:05:00,
2013-04-07 21:10:00,41.5,30.2,29.99,North,0,0.0,0.0,64,0.00,,,-99.99,open2300 version1.11,2013-04-08 01:10:00,
2013-04-07 21:15:00,41.2,29.9,29.99,North,0,0.0,0.0,64,0.00,,,-99.99,open2300 version1.11,2013-04-08 01:15:00,
2013-04-07 21:20:00,40.8,29.9,29.98,North,0,0.0,0.0,65,0.00,,,-99.99,open2300 version1.11,2013-04-08 01:20:00,
2013-04-07 21:30:00,40.5,29.6,29.99,North,0,0.0,0.0,65,0.00,,,-99.99,open2300 version1.11,2013-04-08 01:30:00,
2013-04-07 21:35:00,40.3,29.8,29.99,North,0,0.0,0.0,66,0.00,,,-99.99,open2300 version1.11,2013-04-08 01:35:00,
2013-04-07 21:40:00,40.1,29.6,29.99,North,0,0.0,0.0,66,0.00,,,-99.99,open2300 version1.11,2013-04-08 01:40:00,
2013-04-07 21:45:00,40.1,30.0,30.00,North,0,0.0,0.0,67,0.00,,,-99.99,open2300 version1.11,2013-04-08 01:45:00,
2013-04-07 21:50:00,39.9,29.8,30.00,North,0,0.0,0.0,67,0.00,,,-99.99,open2300 version1.11,2013-04-08 01:50:00,
2013-04-07 22:00:00,39.7,29.6,30.00,North,0,0.0,0.0,67,0.00,,,-99.99,open2300 version1.11,2013-04-08 02:00:00,
2013-04-07 22:05:00,39.6,29.4,29.99,North,0,0.0,0.0,67,0.00,,,-99.99,open2300 version1.11,2013-04-08 02:05:00,
2013-04-07 22:10:00,39.4,29.2,29.99,North,0,0.0,0.0,67,0.00,,,-99.99,open2300 version1.11,2013-04-08 02:10:00,
2013-04-07 22:20:00,39.0,29.7,30.00,North,0,0.0,0.0,69,0.00,,,-99.99,open2300 version1.11,2013-04-08 02:20:00,
2013-04-07 22:25:00,39.0,29.7,30.00,North,0,0.0,0.0,69,0.00,,,-99.99,open2300 version1.11,2013-04-08 02:25:00,
2013-04-07 22:35:00,38.8,29.5,30.00,North,0,0.0,0.0,69,0.00,,,-99.99,open2300 version1.11,2013-04-08 02:35:00,
2013-04-07 22:45:00,38.8,29.5,30.00,North,0,0.0,0.0,69,0.00,,,-99.99,open2300 version1.11,2013-04-08 02:45:00,
2013-04-07 22:50:00,38.8,29.5,30.00,North,0,0.0,0.0,69,0.00,,,-99.99,open2300 version1.11,2013-04-08 02:50:00,
2013-04-07 22:55:00,38.5,29.2,30.01,North,0,0.0,0.0,69,0.00,,,-99.99,open2300 version1.11,2013-04-08 02:55:00,
2013-04-07 23:05:00,38.3,29.4,30.00,North,0,0.0,0.0,70,0.00,,,-99.99,open2300 version1.11,2013-04-08 03:05:00,
2013-04-07 23:15:00,37.9,29.1,30.00,North,0,0.0,0.0,70,0.00,,,-99.99,open2300 version1.11,2013-04-08 03:15:00,
2013-04-07 23:20:00,37.9,29.1,30.00,North,0,0.0,0.0,70,0.00,,,-99.99,open2300 version1.11,2013-04-08 03:20:00,
2013-04-07 23:30:00,37.6,29.1,30.00,North,0,0.0,0.0,71,0.00,,,-99.99,open2300 version1.11,2013-04-08 03:30:00,
2013-04-07 23:40:00,37.2,28.7,30.00,North,0,0.0,0.0,71,0.00,,,-99.99,open2300 version1.11,2013-04-08 03:40:00,
2013-04-07 23:50:00,36.7,28.2,30.01,North,0,0.0,0.0,71,0.00,,,-99.99,open2300 version1.11,2013-04-08 03:50:00,
2013-04-07 23:55:00,36.5,28.3,30.01,North,0,0.0,0.0,72,0.00,,,-99.99,open2300 version1.11,2013-04-08 03:55:00,